Regional Weather Roundup
Issued by NWS

Home | Current Version | Previous Version | Graphics & Text | Print | Product List | Glossary On
Versions: 1 2 3 4 5 6 7 8 9 10 11 12 13 14 15 16 17 18 19 20 21 22 23 24 25 26 27 28 29 30 31 32 33 34 35 36 37 38 39 40 41 42 43 44 45 46 47 48 49 50
000
ASUS43 KBIS 161010
RWRND

NORTH DAKOTA REGIONAL WEATHER ROUNDUP
NATIONAL WEATHER SERVICE BISMARCK ND
500 AM CDT TUE SEP 16 2014

NOTE: "FAIR" INDICATES FEW OR NO CLOUDS BELOW 12,000 FEET WITH NO
SIGNIFICANT WEATHER AND/OR OBSTRUCTIONS TO VISIBILITY.


NDZ001>003-009>011-017-161100-
NORTHWEST NORTH DAKOTA

CITY           SKY/WX    TMP DP  RH WIND       PRES   REMARKS
WILLISTON      CLEAR     38  33  82 CALM      30.03S
MINOT          CLEAR     48  39  71 SW10      30.02F
MINOT AFB      CLEAR     46  40  80 SW8       30.01F
$$

NDZ018>021-031>035-040>046-161100-
SOUTHWEST NORTH DAKOTA

CITY           SKY/WX    TMP DP  RH WIND       PRES   REMARKS
BISMARCK       CLEAR     42  38  85 E5        30.07F
DICKINSON      CLEAR     42  37  82 CALM      30.03F
GARRISON         N/A     46  41  82 CALM      30.05F
HETTINGER ARPT CLEAR     38  35  89 CALM      30.05F
$$

NDZ004>008-012>016-024-026-027-054-161100-
NORTHEAST NORTH DAKOTA

CITY           SKY/WX    TMP DP  RH WIND       PRES   REMARKS
GRAND FORKS    CLEAR     50  38  63 SW12      30.05S
GRND FRKS AFB  CLEAR     49  39  69 SW9       30.05S
DEVILS LAKE    CLEAR     52  39  62 SW12G17   30.04S
$$

NDZ022-023-025-028>030-036>039-047>053-161100-
SOUTHEAST NORTH DAKOTA

CITY           SKY/WX    TMP DP  RH WIND       PRES   REMARKS
FARGO          CLEAR     45  38  76 SW9       30.10F
JAMESTOWN      CLEAR     39  35  86 S3        30.08F
$$




USA.gov is the U.S. government's official web portal to all federal, state and local government web resources and services.